Location: Alafon
(8.4500°N, 4.2333°E)
Time: 16:25:12
(UTC+00:00)

SR - Pass Details

Date: 06 August 2021
Orbit: 581 x 874 km, 66.7° (Epoch: 18 September)

Event Time Altitude Azimuth Distance (km) Brightness Sun altitude
Rises 02:48:50 0° 188° (S) 3,425 - -38.9°
Reaches altitude 10° 02:51:22 10° 183° (S) 2,505 - -38.4°
Maximum altitude 02:57:00 50° 109° (ESE) 1,102 - -37.2°
Exits shadow 02:58:51 37° 61° (ENE) 1,324 ? -36.8°
Drops below altitude 10° 03:02:37 10° 35° (NE) 2,492 ? -35.9°
Sets 03:05:07 0° 30° (NNE) 3,405 ? -35.4°
